[Iaude] MPEC T152: 2023 TK5 [a=1.04,e=0.38,i=7.8,H=23.6]

mpec at marsden.cfa.harvard.edu mpec at marsden.cfa.harvard.edu
Wed Oct 11 03:55:02 EDT 2023


M.P.E.C. 2023-T152                             Issued 2023 October 11, 07:52 UT

     The Minor Planet Electronic Circulars contain information on unusual
         minor planets, routine data on comets and natural satellites,
         and occasional editorial announcements.  They are published
    on behalf of Division F of the International Astronomical Union by the
          Minor Planet Center, Smithsonian Astrophysical Observatory,
                          Cambridge, MA 02138, U.S.A.
			  
             Prepared using the Tamkin Foundation Computer Network

                              MPC at CFA.HARVARD.EDU
            URL https://www.minorplanetcenter.net/    ISSN 1523-6714

                                    2023 TK5                                    


Observations:
     K23T05K 1C2023 10 05.46571 02 59 47.96 +14 50 23.6          21.0 GVET152G96
     K23T05K 1C2023 10 05.48101 02 59 39.77 +14 50 35.8          20.9 GVET152G96
     K23T05K  C2023 10 10.53681402 19 12.797+15 37 03.09         20.47GVET152F52
     K23T05K* C2023 10 10.54593102 19 08.613+15 37 05.25         21.02wXET152F52
     K23T05K  C2023 10 10.56416302 19 00.234+15 37 10.07         20.90wXET152F52
     K23T05K KC2023 10 10.96781302 16 06.70 +15 38 41.5          20.6 GVET152L01
     K23T05K IC2023 10 10.97032802 16 05.61 +15 38 41.9          20.5 GVET152L01
     K23T05K IC2023 10 10.97589902 16 03.11 +15 38 42.8          20.3 GVET152L01
     K23T05K IC2023 10 10.98061302 16 01.03 +15 38 44.2          20.4 GVET152L01
     K23T05K KB2023 10 11.06989602 15 21.67 +15 39 07.8          20.2 GVET152I93
     K23T05K KB2023 10 11.07334302 15 20.16 +15 39 08.4          20.3 GVET152I93
     K23T05K KB2023 10 11.07678602 15 18.63 +15 39 09.1          20.3 GVET152I93
     K23T05K KC2023 10 11.20710602 14 25.42 +15 39 46.1          20.6 GXET152858
     K23T05K KC2023 10 11.21520302 14 21.87 +15 39 48.4          20.6 GXET152858
     K23T05K KC2023 10 11.22168602 14 18.06 +15 39 48.7          21.5 VuET152H21
     K23T05K KC2023 10 11.22323802 14 18.35 +15 39 50.9          20.5 GXET152858
     K23T05K KC2023 10 11.22727502 14 15.60 +15 39 49.9          21.3 VuET152H21
     K23T05K KC2023 10 11.23286402 14 13.10 +15 39 51.6          21.3 VuET152H21
     K23T05K KC2023 10 11.23668302 14 11.42 +15 39 52.7          21.5 VuET152H21
     K23T05K KC2023 10 11.23834402 14 11.893+15 39 56.27         21.01GVET152I52
     K23T05K KC2023 10 11.24059102 14 10.892+15 39 57.42         20.51GVET152I52
     K23T05K 1C2023 10 11.29037602 13 48.774+15 40 10.88         20.38GVET152G96
     K23T05K 1C2023 10 11.29552202 13 46.510+15 40 12.00         20.64GVET152G96
     K23T05K 1C2023 10 11.30230002 13 43.460+15 40 13.80         20.64GVET152G96
     K23T05K 1C2023 10 11.30831602 13 40.782+15 40 15.64         20.66GVET152G96

Observer details:
858 Tebbutt Observatory, Edgewood.  Observer F. B. Zoltowski.  0.51-m f/8.1
    Schmidt-Cassegrain + CCD.
F52 Pan-STARRS 2, Haleakala.  Observers J. Bulger, K. Chambers, T. Dukes, T.
    Lowe, P. Minguez, A. Schultz, I. Smith.  Measurers S. Chastel, J.
    Fairlamb, M. Huber, Y. Ramanjooloo, R. Wainscoat, R. Weryk, K. Chambers,
    T. de Boer, J. Bulger, H. Gao, C.-C. Lin, T. Lowe, E. Magnier, P. Minguez,
    A. Schultz, I. Smith.  1.8-m Ritchey-Chretien + CCD.
G96 Mt. Lemmon Survey.  Observers G. J. Leonard, D. Rankin.  Measurers B.
    Gray, D. Rankin, F. C. Shelly, E. C. Beshore, D. Fay, J. B. Fazekas, D. C.
    Fuls, A. R. Gibbs, A. D. Grauer, H. Groeller, J. K. Hogan, R. A. Kowalski,
    S. M. Larson, G. J. Leonard, R. L. Seaman, K. W. Wierzchos.  1.5-m
    reflector + 10K CCD.
H21 Astronomical Research Observatory, Westfield.  Observer R. Holmes.
    Measurers T. Linder, R. Holmes, L. Horn.  0.76-m f/3.0 astrograph + CCD.
I52 Steward Observatory, Mt. Lemmon Station.  Observer J. B. Fazekas.
    Measurers E. C. Beshore, D. Fay, J. B. Fazekas, D. C. Fuls, A. R. Gibbs,
    A. D. Grauer, H. Groeller, J. K. Hogan, R. A. Kowalski, S. M. Larson, G.
    J. Leonard, D. Rankin, R. L. Seaman, F. C. Shelly, K. W. Wierzchos.  1.0-m
    prime focus + CCD.
I93 St Pardon de Conques.  Observer F. Losse.  0.40-m f/3.7 reflector + CMO.
L01 Visnjan Observatory, Tican.  Observer K. Korlevic.  1.0-m f/2.9 reflector
    + CCD.

Orbital elements:
2023 TK5                                                 Earth MOID = 0.0395 AU
Epoch 2023 Sept. 13.0 TT = JDT 2460200.5                Veres                   
M  59.63054              (2000.0)            P               Q                  
n   0.92663504     Peri.  235.52752     -0.28825065     +0.95665883             
a   1.0419900      Node    17.85778     -0.82828886     -0.22740135             
e   0.3766039      Incl.    7.76229     -0.48046760     -0.18191347             
P   1.06           H   23.66          G   0.15           U   8                  
Residuals in seconds of arc
231005 G96  0.2-  0.1-    231011 I93  0.0   0.3+    231011 H21  0.4-  0.5+
231005 G96  0.2+  0.0     231011 I93  0.4+  0.1+    231011 I52  0.1+  0.1-
231010 F52  0.1+  0.3+    231011 I93  0.5+  0.0     231011 I52  0.0   0.4+
231010 F52  0.3+  0.1+    231011 858  0.5-  0.4+    231011 G96  0.1+  0.3+
231010 F52  0.2+  0.3+    231011 858  0.1-  0.3+    231011 G96  0.5+  0.1+
231010 L01  1.0-  0.7+    231011 H21  0.9-  0.4+    231011 G96  0.1+  0.2+
231010 L01  0.4-  0.4+    231011 858  0.4+  0.5+    231011 G96  0.1+  0.5+
231010 L01  0.4-  0.2-    231011 H21  0.5-  0.1+
231010 L01  0.1+  0.1-    231011 H21  0.7-  0.3+

Ephemeris:
2023 TK5                 a,e,i = 1.04, 0.38, 8                   q = 0.6496
Date    TT    R. A. (2000) Decl.     Delta      r    Elong.  Phase     V
2023 09 11    06 35 18.4 +02 16 02   0.1430  0.9668    69.7   102.3    23.1
...
2023 09 26    04 27 24.5 +11 10 22   0.1296  1.0640   115.0    58.7    21.5
...
2023 10 04    03 12 41.1 +14 28 16   0.1404  1.1123   140.4    35.0    21.1
...
2023 10 10    02 23 12.9 +15 34 17   0.1581  1.1465   157.5    19.5    20.9
2023 10 11    02 15 52.6 +15 39 16   0.1619  1.1520   160.0    17.2    20.9
2023 10 12    02 08 49.7 +15 42 50   0.1658  1.1575   162.5    15.0    20.9
...
2023 10 18    01 32 41.4 +15 41 59   0.1938  1.1894   173.6     5.4    20.9
...
2023 10 26    00 59 42.0 +15 11 32   0.2410  1.2289   165.2    11.9    21.7
...
2023 11 10    00 30 55.6 +14 18 12   0.3524  1.2938   144.5    26.4    23.1

M. P. C. Staff               (C) Copyright 2023 MPC           M.P.E.C. 2023-T152





More information about the Iaude mailing list